Regional Weather Roundup
Issued by NWS Sterling, VA

Home | Current Version | Previous Version | Graphics & Text | Print | Product List | Glossary On
Versions: 1 2 3 4 5 6 7 8 9 10 11 12 13 14 15 16 17 18 19 20 21 22 23 24 25 26 27 28 29 30 31 32 33 34 35 36 37 38 39 40 41 42 43 44 45 46 47 48 49 50
000
ASUS41 KLWX 180310
RWRLWX

REGIONAL WEATHER ROUNDUP
NATIONAL WEATHER SERVICE BALTIMORE MD/WASHINGTON DC
1100 PM EDT FRI APR 17 2015

Note: "FAIR" indicates few or no clouds below 12,000 feet
with no significant weather and/or obstructions to visibility.
 TC=TEMPERATURE CELSIUS

 * =Non NWS site. Station does not report precipitation (e.g. rain,
    snow, etc.), thunder, or fog.

DCZ001-MDZ009-015-VAZ040>042-051-053>054-180400-
WASHINGTON METRO

CITY           SKY/WX    TMP DP  RH WIND       PRES   REMARKS
WASHINGTON NAT MOCLDY    70  61  73 CALM      29.99R
DULLES         MOCLDY    63  58  83 CALM      30.00R
ANDREWS AFB    MOCLDY    64  62  93 NW2       29.98S
FT BELVOIR     MOCLDY    66  59  80 W1        29.98S
QUANTICO       MOCLDY    67  59  75 CALM      29.99S
COLLEGE PARK*  MOCLDY    64  61  88 CALM      29.98S
LEESBURG*      MOCLDY    63  59  88 CALM      30.01R
MANASSAS*      CLOUDY    63  61  94 CALM      29.99R
GAITHERSBURG*  PTCLDY    63  52  67 CALM      30.03S

$$

MDZ006>007-011-014-180400-
BALTIMORE METRO

CITY           SKY/WX    TMP DP  RH WIND       PRES   REMARKS
BWI AIRPORT    PTCLDY    63  57  81 CALM      29.97S
MD SCIENCE CTR   N/A     67  57  70 MISG      29.98S
MARTIN STATE   CLEAR     61  59  94 CALM      30.00R
ANNAPOLIS      MOCLDY    60  56  86 SE3       29.98R
FORT MEADE*    PTCLDY    59  54  82 CALM      30.01R

$$

MDZ012-015-019>023-180400-
MARYLAND EASTERN SHORE

CITY           SKY/WX    TMP DP  RH WIND       PRES   REMARKS
OCEAN CITY     MOCLDY    61  58  90 SW6       30.00R
SALISBURY      MOCLDY    62  59  90 S3        29.98S
BAY BRIDGE AP*   N/A     63  63 100 SE6       29.98S
CAMBRIDGE*     MOCLDY    66  59  77 S6        29.97F
EASTON*        LGT RAIN  67  67 100 CALM      30.03R

$$

MDZ017>025-180400-
SOUTHERN MARYLAND

CITY           SKY/WX    TMP DP  RH WIND       PRES   REMARKS
PATUXENT RIVER MOCLDY    66  59  78 S3        29.98R
ST INIGOES     PTCLDY    64  59  83 S5        29.97S
LEONARDTOWN*   PTCLDY    64  59  82 CALM      30.00R

$$

MDZ003>005-180400-
NORTH CENTRAL MARYLAND

CITY           SKY/WX    TMP DP  RH WIND       PRES   REMARKS
FREDERICK*     NOT AVBL
HAGERSTOWN APT PTCLDY    62  51  67 S3        30.00S
WESTMINSTER*   PTCLDY    64  55  72 CALM      30.01S

$$

MDZ501>502-180400-
WESTERN MARYLAND

CITY           SKY/WX    TMP DP  RH WIND       PRES   REMARKS
OAKLAND*       PTCLDY    54 N/A N/A CALM      30.09R
CUMBERLAND*    PTCLDY    61  54  77 CALM      30.06S

$$

VAZ025>031-180400-
SHENANDOAH VALLEY

CITY           SKY/WX    TMP DP  RH WIND       PRES   REMARKS
WINCHESTER*    PTCLDY    61  50  67 CALM      30.01S
FRONT ROYAL*   FAIR      61  55  82 S6        30.01
LURAY*         FAIR      61  55  82 CALM      30.02S
NEW MARKET*    FAIR      58  52  81 CALM      30.01S
STAUNTON*      MOCLDY    59  57  92 CALM      30.05S
WAYNESBORO*    FAIR      61  57  85 CALM      30.04S

$$

WVZ021-048>050-054>055-180400-
EASTERN WEST VIRGINIA PANHANDLE

CITY           SKY/WX    TMP DP  RH WIND       PRES   REMARKS
MARTINSBURG    NOT AVBL
PETERSBURG*    NOT AVBL

$$

VAZ036>039-050-180400-
CENTRAL FOOTHILLS

CITY           SKY/WX    TMP DP  RH WIND       PRES   REMARKS
CHARLOTTESVILL MOCLDY    64  62  93 CALM      30.00F
CULPEPER*      CLOUDY    66  64  94 CALM      30.00S
ORANGE*        MOCLDY    59  59 100 CALM      30.02S
GORDONSVILLE*  NOT AVBL
WARRENTON*     MOCLDY    62  62  98 CALM      29.99S

$$

VAZ055>057-180400-
NORTH AND CENTRAL PIEDMONT

CITY           SKY/WX    TMP DP  RH WIND       PRES   REMARKS
FREDERICKSBRG* MOCLDY    64  64 100 CALM      29.99R
STAFFORD*      MOCLDY    61  32  33 CALM      30.03S

$$

NCZ024-NYZ072-PAZ021-071-VAZ022-071-180400-
OTHER REGIONAL OBSERVATIONS

CITY           SKY/WX    TMP DP  RH WIND       PRES   REMARKS
NEW YORK CITY  PTCLDY    66  51  58 CALM      29.99R
PHILADELPHIA   PTCLDY    65  57  75 SW7       29.97F
PITTSBURGH     PTCLDY    61  47  59 N6        30.05R
ROANOKE        CLOUDY    68  59  73 E3        30.03S
RICHMOND       CLOUDY    65  62  90 CALM      29.99R
RALEIGH        CLOUDY    66  62  87 SW3       30.02S

$$

ANZ530>537-180400-
MARINE OBSERVATIONS

STATION/POSITION TIME  TEMP    WIND        PRES
                       AIR SEA DIR/SP/G
                 (UTC) (F)     (DEG/KT/KT) (MB)
THOMAS PT LIGHT  0300   59 54  210/  4/  6 1015.8R
BALT KEY BRIDGE  0200   65      70/  3/  4 1015.0R
COVE POINT       0200   61     190/  9/  9 1014.8R
LEWISETTA        0200   66 59              1014.9R
SOLOMONS ISLAND  0200      56                N/A
PINEY POINT      0206          150/  8/  8   N/A

$$




USA.gov is the U.S. government's official web portal to all federal, state and local government web resources and services.